Weather in Zaykovo

Russia / Tyumen Oblast     57°07′28″N   65°40′24″E
temp.,
°C
wind,
m/s
gust,
m/s
humid.,
%
clouds,
%
prec.,
mm/h
press.,
hPa
HPBL,
m
11 april, sun
sun1123:00+3s4119540 0.0 1038352
02:00+4ssw5990100 0.0 1038470
05:00+4s41092100 0.0 1038482
08:00+4ssw41293100 0.0 1037496
11:00+7ssw61284100 0.0 1036553
14:00+11ssw6126675 0.0 1035744
17:00+11ssw5135994 0.0 1034725
20:00+7sw4147472 0.0 1033524
12 april, mon
mon1223:00+5sw4138592 0.0 1032374
02:00+4sw41090100 0.0 1032260
05:00+5wsw3894100 0.0 1032199
08:00+6w2798100 0.7 1033217
11:00+9nw4672100 0.7 1034738
14:00+12nw4653100 0.0 10351088
17:00+12nw4653100 0.0 10351324
20:00+8nw2569100 0.0 103784
13 april, tue
tue1323:00+5nnw22705 0.0 103839
02:00+3nnw11715 0.0 103910
05:00+2wnw11710 0.0 104010
08:00+5wnw12640 0.0 1041134
11:00+10wsw23430 0.0 1040770
14:00+13wsw34355 0.0 10391165
17:00+13sw45390 0.0 10371056
20:00+8sw37660 0.0 1036139
14 april, wed
wed1423:00+6sw38745 0.0 1035151
02:00+5sw311765 0.0 1033215
05:00+5sw41280100 0.0 1032236
08:00+8sw41275100 0.0 1031323
11:00+13wsw486476 0.0 1029528
14:00+17wsw57535 0.0 10271210
17:00+17w4755100 0.0 10261266
20:00+13wsw227782 0.0 102523
15 april, thu
thu1523:00+11sw228815 0.0 102539
02:00+9wsw259281 0.0 102487
05:00+8w36909 0.0 102397
08:00+11wsw397322 0.0 1022276
11:00+16w473930 0.0 10211121
14:00+18w57307 0.0 10191601
17:00+18wnw463364 0.0 10181486
20:00+13wsw225219 0.0 101828